Location: Plainartige
(45.6866°N, 1.7993°E)
Time: 17:08:21
(UTC+00:00)

Envisat - Pass Details

Date: 24 January 2022
Orbit: 764 x 765 km, 98.2° (Epoch: 19 May)

Event Time Altitude Azimuth Distance (km) Brightness Sun altitude
Rises 05:30:44 0° 7° (N) 3,241 6.2 -19.5°
Reaches altitude 10° 05:33:08 10° 1° (N) 2,311 5.4 -19.0°
Maximum altitude 05:37:55 43° 291° (WNW) 1,065 3.3 -18.2°
Drops below altitude 10° 05:42:42 10° 221° (SW) 2,297 5.2 -17.4°
Sets 05:45:04 0° 215° (SW) 3,219 6.0 -17.0°
